Weather History for Houlton, ME

Change the Weather History Date:

Tuesday, November 13, 2012

  Actual Average Record
Temperature  
Mean Temperature 45 °F 34 °F  
Max Temperature 61 °F 42 °F 61 °F (2012)
Min Temperature 29 °F 26 °F 6 °F (1978)
Degree Days  
Heating Degree Days 20 31  
Month to date heating degree days 367 376  
Since 1 July heating degree days 1236 1512  
Cooling Degree Days 0 0  
Month to date cooling degree days 0 0  
Year to date cooling degree days 277 191  
Moisture  
Dew Point 44 °F    
Average Humidity 84    
Maximum Humidity 93    
Minimum Humidity 75    
Precipitation  
Precipitation 0.34 in 0.13 in 2.15 in (1982)
Month to date precipitation 1.79 1.76  
Year to date precipitation 42.61 34.44  
Sea Level Pressure  
Sea Level Pressure 30.15 in    
Wind  
Wind Speed 6 mph (WSW)    
Max Wind Speed 22 mph    
Max Gust Speed 31 mph    
Visibility 7 miles    
Events Rain    
T = Trace of Precipitation, MM = Missing Value Source: NWS Daily Summary

Daily Weather History Graph

Daily Weather History Graph

Search for Another Location

Airport:

Trip Planner

Search our weather history database for the weather conditions in past years. The results will help you decide how hot, cold, wet, or windy it might be!

Date:

Astronomy

Nov. 13, 2012 Rise Set
Actual Time 6:29 AM EST 4:00 PM EST
Civil Twilight 5:57 AM EST 4:33 PM EST
Nautical Twilight 5:21 AM EST 5:09 PM EST
Astronomical Twilight 4:45 AM EST 5:44 PM EST
Moon 6:03 AM EST (11/13) 3:49 PM EST (11/13)
Length of Visible Light 10h 35m
Length of Day
9h 30m
Waning Crescent, 0% of the Moon is Illuminated
Nov 13
Waning Crescent
Nov 13
New
Nov 20
First Quarter
Nov 28
Full
Dec 6
Last Quarter

Hourly Weather History & Observations

Time (EST) Temp. Windchill Dew Point Humidity Pressure Visibility Wind Dir Wind Speed Gust Speed Precip Events Conditions
12:30 AM 55.4 °F - 51.8 °F 88% 30.16 in 10.0 mi South 12.7 mph 25.3 mph N/A   Mostly Cloudy
12:53 AM 55.0 °F - 50.0 °F 83% 30.17 in 10.0 mi South 10.4 mph 23.0 mph N/A   Mostly Cloudy
1:53 AM 55.0 °F - 50.0 °F 83% 30.15 in 10.0 mi South 11.5 mph 17.3 mph N/A   Overcast
2:53 AM 57.0 °F - 52.0 °F 83% 30.12 in 10.0 mi South 11.5 mph 20.7 mph N/A   Mostly Cloudy
3:06 AM 57.2 °F - 51.8 °F 82% 30.11 in 10.0 mi South 8.1 mph 19.6 mph N/A   Overcast
3:53 AM 59.0 °F - 52.0 °F 78% 30.10 in 10.0 mi South 9.2 mph 21.9 mph N/A   Overcast
4:53 AM 59.0 °F - 53.1 °F 81% 30.08 in 10.0 mi South 9.2 mph - 0.00 in Rain Light Rain
5:53 AM 60.1 °F - 54.0 °F 80% 30.06 in 10.0 mi South 9.2 mph - 0.00 in   Overcast
6:53 AM 60.1 °F - 55.0 °F 83% 30.05 in 10.0 mi South 8.1 mph - N/A   Overcast
7:36 AM 59.0 °F - 55.4 °F 88% 30.04 in 2.0 mi South 11.5 mph 19.6 mph 0.03 in Rain Light Rain
7:45 AM 60.8 °F - 55.4 °F 82% 30.04 in 8.0 mi South 11.5 mph 23.0 mph 0.04 in Rain Light Rain
7:53 AM 60.1 °F - 55.9 °F 86% 30.05 in 9.0 mi SSW 10.4 mph 20.7 mph 0.04 in   Overcast
8:36 AM 51.8 °F - 46.4 °F 82% 30.09 in 5.0 mi West 12.7 mph 20.7 mph 0.02 in Rain Light Rain
8:46 AM 50.0 °F - 46.4 °F 87% 30.09 in 1.8 mi West 8.1 mph 20.7 mph 0.07 in Rain Heavy Rain
8:53 AM 50.0 °F - 46.9 °F 89% 30.10 in 2.0 mi West 5.8 mph - 0.08 in Rain Rain
9:01 AM 50.0 °F - 46.4 °F 87% 30.09 in 7.0 mi WNW 5.8 mph - 0.00 in Rain Light Rain
9:53 AM 48.9 °F - 46.0 °F 90% 30.11 in 7.0 mi Variable 5.8 mph - 0.02 in Rain Light Rain
10:09 AM 48.2 °F - 44.6 °F 87% 30.11 in 6.0 mi NW 6.9 mph - 0.00 in Rain Light Rain
10:53 AM 48.9 °F - 46.0 °F 90% 30.10 in 9.0 mi Calm Calm - 0.01 in Rain Light Rain
11:11 AM 48.2 °F - 46.4 °F 93% 30.09 in 7.0 mi Calm Calm - 0.00 in   Overcast
11:19 AM 48.2 °F - 44.6 °F 87% 30.09 in 5.0 mi WSW 4.6 mph - 0.01 in Rain Light Rain
11:38 AM 48.2 °F - 46.4 °F 93% 30.10 in 5.0 mi SW 4.6 mph - 0.02 in Rain Light Rain
11:53 AM 48.0 °F - 45.0 °F 89% 30.11 in 3.0 mi West 6.9 mph - 0.03 in Rain Light Rain
12:12 PM 46.4 °F 41.9 °F 44.6 °F 93% 30.12 in 2.5 mi West 9.2 mph - 0.02 in Rain Light Rain
12:21 PM 46.4 °F 42.4 °F 44.6 °F 93% 30.12 in 3.0 mi West 8.1 mph - 0.03 in Rain Light Rain
12:25 PM 46.4 °F 44.3 °F 44.6 °F 93% 30.12 in 2.5 mi West 4.6 mph - 0.03 in Rain Light Rain
12:41 PM 46.4 °F 43.5 °F 44.6 °F 93% 30.12 in 4.0 mi West 5.8 mph - 0.04 in Rain Light Rain
12:50 PM 46.4 °F 42.9 °F 44.6 °F 93% 30.12 in 3.0 mi West 6.9 mph - 0.05 in Rain Light Rain
12:53 PM 46.9 °F - 44.1 °F 90% 30.13 in 3.0 mi West 5.8 mph - 0.06 in Rain Light Rain
1:53 PM 44.1 °F 39.0 °F 41.0 °F 89% 30.15 in 3.0 mi NW 9.2 mph - 0.03 in Rain Light Rain
2:10 PM 42.8 °F 39.3 °F 39.2 °F 87% 30.15 in 5.0 mi NW 5.8 mph - 0.01 in Rain Light Rain
2:42 PM 42.8 °F 39.3 °F 39.2 °F 87% 30.16 in 5.0 mi WNW 5.8 mph - 0.04 in Rain Rain
2:53 PM 42.1 °F 37.7 °F 39.9 °F 92% 30.17 in 5.0 mi NW 6.9 mph - 0.06 in Rain Light Rain
3:02 PM 42.8 °F 38.6 °F 37.4 °F 81% 30.18 in 5.0 mi WNW 6.9 mph - 0.01 in Rain Light Rain
3:25 PM 41.0 °F 38.0 °F 37.4 °F 87% 30.19 in 10.0 mi WNW 4.6 mph - 0.01 in Rain Light Rain
3:36 PM 41.0 °F 39.0 °F 37.4 °F 87% 30.19 in 10.0 mi West 3.5 mph - 0.01 in Rain Light Rain
3:53 PM 41.0 °F 37.1 °F 37.9 °F 89% 30.20 in 10.0 mi West 5.8 mph - 0.01 in   Overcast
4:53 PM 39.9 °F 34.5 °F 35.1 °F 83% 30.24 in 10.0 mi WNW 8.1 mph - N/A   Overcast
5:53 PM 39.0 °F 36.8 °F 33.1 °F 79% 30.28 in 10.0 mi West 3.5 mph - N/A   Overcast
6:53 PM 37.0 °F 33.3 °F 30.9 °F 79% 30.30 in 10.0 mi West 4.6 mph - N/A   Partly Cloudy
7:53 PM 36.0 °F 33.3 °F 30.9 °F 82% 30.32 in 10.0 mi WNW 3.5 mph - N/A   Clear
8:53 PM 34.0 °F 31.0 °F 30.0 °F 85% 30.35 in 10.0 mi WSW 3.5 mph - N/A   Clear
9:53 PM 34.0 °F - 28.9 °F 82% 30.37 in 10.0 mi Calm Calm - N/A   Clear
10:53 PM 32.0 °F - 28.0 °F 85% 30.38 in 10.0 mi Calm Calm - N/A   Clear
11:53 PM 30.0 °F - 27.0 °F 88% 30.40 in 10.0 mi Calm Calm - N/A   Partly Cloudy